Regional Weather Roundup
Issued by NWS Cleveland, OH

Home | Current Version | Previous Version | Text Only | Print | Product List | Glossary Off
Versions: 1 2 3 4 5 6 7 8 9 10 11 12 13 14 15 16 17 18 19 20 21 22 23 24 25 26 27 28 29 30 31 32 33 34 35 36 37 38 39 40 41 42 43 44 45 46 47 48 49 50

000
ASUS41 KCLE 202300
RWRCLE
OHIO REGIONAL WEATHER ROUNDUP
NATIONAL WEATHER SERVICE WILMINGTON, OH
700 PM EDT MON OCT 20 2014

NOTE: "FAIR" INDICATES FEW OR NO CLOUDS BELOW 12,000 FEET WITH NO
SIGNIFICANT WEATHER AND/OR OBSTRUCTIONS TO VISIBILITY.

OHZ001>008-015>018-024>027-034-035-043-044-210000-
   NORTHWEST OHIO

CITY           SKY/WX    TMP DP  RH WIND       PRES   REMARKS
DEFIANCE       CLOUDY    55  51  86 CALM      29.85R
FINDLAY        CLOUDY    55  52  89 W5        29.83S
TOLEDO EXPRESS CLOUDY    54  50  86 W8        29.83R
TOLEDO METCALF CLOUDY    54  50  86 W3        29.84R
LIMA           CLOUDY    55  52  89 S6        29.84S
$$

OHZ009>014-019>023-028>033-038-089-210000-
   NORTHEAST OHIO

CITY           SKY/WX    TMP DP  RH WIND       PRES   REMARKS
CLE-HOPKINS    LGT RAIN  53  50  89 SW8       29.85S FOG
CLE-LAKEFRONT  LGT RAIN  54  51  90 S9        29.83R
CUY CO. ARPT   LGT RAIN  54  52  94 W9        29.84R
LORAIN-ELYRIA  RAIN      52  51  97 W7        29.84R FOG
ASHTABULA      CLOUDY    53  44  71 S5        29.84R
AKRON-CANTON   LGT RAIN  52  47  83 S8        29.85S
WOOSTER        NOT AVBL
MANSFIELD      LGT RAIN  51  50  96 SW7       29.84S
YOUNGSTOWN     LGT RAIN  52  45  77 S7        29.85R
$$

OHZ042-051>053-060>062-070>072-077>081-210000-
  SOUTHWEST OHIO

CITY           SKY/WX    TMP DP  RH WIND       PRES   REMARKS
CINC-COVINGTON MOCLDY    62  49  62 W7        29.87R
CINC-LUNKEN    PTCLDY    60  51  72 SW9       29.88R
HAMILTON       MOCLDY    58  52  80 SW5       29.88R
DAYTON         NOT AVBL
WRIGHT-PAT AFB NOT AVBL
DAYTON GENERAL CLEAR     57  53  86 S3        29.86R
WILMINGTON     MOCLDY    55  49  80 S7        29.87S
$$

OHZ036-037-039>041-045>050-054>059-063>069-073>076-082>088-210000-
  CENTRAL AND SOUTHEAST OHIO

CITY           SKY/WX    TMP DP  RH WIND       PRES   REMARKS
COLUMBUS       CLOUDY    53  50  89 E3        29.86F THUNDER
OSU AIRPORT    LGT RAIN  53  50  89 CALM      29.85F
BOLTON FIELD   CLOUDY    54  52  94 CALM      29.88R
RICKENBACK AFB NOT AVBL
NEWARK         RAIN      53  49  86 SE12      29.86F FOG
MARION         CLOUDY    53  50  89 S8        29.85R
LANCASTER      CLOUDY    53  50  89 SE6       29.88S
ZANESVILLE     CLOUDY    52  47  83 S3        29.89R
NEW PHILLY     LGT RAIN  53  48  83 SW3       29.88R
$$



USA.gov is the U.S. government's official web portal to all federal, state and local government web resources and services.